Location: Anciles
(42.5833°N, 0.5167°E)
Time: 03:06:00
(UTC+00:00)

Cosmos 2242 Rocket - Pass Details

Date: 10 December 2019
Orbit: 617 x 652 km, 82.5° (Epoch: 22 January)

Event Time Altitude Azimuth Distance (km) Brightness Sun altitude
Rises 16:57:31 0° 165° (SSE) 2,946 7.2 -6.2°
Reaches altitude 10° 16:59:53 10° 156° (SSE) 2,045 6.3 -6.6°
Maximum altitude 17:04:02 35° 91° (E) 1,044 4.3 -7.3°
Drops below altitude 10° 17:08:13 10° 25° (NNE) 2,068 5.8 -8.0°
Sets 17:10:37 0° 17° (NNE) 2,985 6.7 -8.4°
